User: anonymous   Login
Location: Unspecified
(0.0000°N, 0.0000°E)
Time: 01:53:48
(UTC+02:00)
Language:

SWIFT - Orbit

View from above orbital plane
View from above orbital plane
View from above satellite
View from above satellite

Ground track
Ground track

The orbit data is extracted from the following two-line orbital elements,

1 28485U 04047A   15089.34427017  .00006683  00000-0  47274-3 0  9993
2 28485 020.5581 028.6382 0012079 102.1678 258.0108 15.01237227566217
Epoch (UTC): 30 March 2015 08:15:44
Eccentricity: 0.0012079
inclination: 20.5581°
perigee height: 555 km
apogee height: 571 km
right ascension of ascending node: 28.6382°
argument of perigee: 102.1678°
revolutions per day: 15.01237227
mean anomaly at epoch: 258.0108°
orbit number at epoch: 56621

The dashed part of the orbit path shows where the satellite is in the earth's shadow,  

DLR